{"data":{"norad_id":63505,"epoch":"2026-09-20T10:27:00.521280Z","epoch_age_seconds":161095,"freshness":"FRESH","line1":"1 63505U 25071N   26263.43542270  .00020800  00000+0  62510-3 0  9996","line2":"2 63505  53.1585 314.1222 0001049  84.3988 275.7135 15.34396015 82600","mean_motion":15.34396015,"eccentricity":0.0001049,"inclination_deg":53.1585,"raan_deg":314.1222,"arg_perigee_deg":84.3988,"mean_anomaly_deg":275.7135,"bstar":0.0006251,"rev_number":8260,"period_min":93.848001814577,"perigee_km":461.99747910888,"apogee_km":463.4326898762,"semimajor_km":6840.8520844925,"source":"CELESTRAK","updated_at":"2026-09-21T09:00:35.015680Z"}}